LELLGEML

Guest
Details From LELL - Sabadell
To GEML - MELILLA
Flight Number -
Tags decoded
Created
Modified
Stats Distance 459 nm / 851 km
Max Altitude 0 ft / 0 m
Waypoints 3
Social Downloads 0
Likes 0
Share VATSIM

Download

Looking for another format? Having issues loading an existing format? Contact us
Advertisement - Login to hide

Notes

Requested: LELL BERUM GEML

Route

LELL BERUM GEML

ID Type Via Altitude Latitude Longitude Leg Dist Tot Dist Heading (true) Name
O LELL APT - 0 ft / 0 m 41.52098˚ 2.10491˚ - 0 nm - Sabadell
BERUM FIX - 0 ft / 0 m 35.83333˚ -3.23583˚ 423 nm 423 nm 218° / 215° -
O GEML APT - 0 ft / 0 m 35.28037˚ -2.95671˚ 35 nm 459 nm 158° / 158° MELILLA

Altitude Profile

Advertisement - Login to hide

Weather


0- 5 10 15 20 25 30 35+ Temperature / ° C

Clouds and Precipitation
Forecast for 2017-12-15 12:00 UTC. Updated an hour ago

Ground ~20,000 ft ~40,000 ft Winds

LELL

Details ICAO LELL (QSA)
Name Sabadell
Region Spain
Timezone Europe/Madrid (UTC+1.0)
Stats Elevation 465 ft / 142 m (AMSL)
Location 41.520977° 2.104912°
Runways 1
Magnetic Variation 0.821° E

METAR

LELL 151030Z 26013G23KT 230V290 9999 FEW020 14/05 Q1005 WS R31

Decode

TAF

TAF AMD LELL 151002Z 1510/1609 24005KT 9999 FEW030 TX15/1513Z TN03/1606Z TEMPO 1510/1512 VRB03KT BECMG 1510/1512 27010KT TEMPO 1516/1603 30012G25KT

Decode

Departure Runways

ID Width Length Bearing (true) Bearing (mag) Surface Threshold Offset Overrun Length
13 98 ft / 30 m 2,956 ft / 901 m 127.50° 126.68° Asphalt 0 ft / 0 m 0 ft / 0 m
31 98 ft / 30 m 2,956 ft / 901 m 307.50° 306.68° Asphalt 0 ft / 0 m 0 ft / 0 m

GEML

Details ICAO GEML (MLN)
Name MELILLA
Region Ceuta and Melilla
Timezone Africa/Casablanca (UTC+0.0)
Stats Elevation 156 ft / 48 m (AMSL)
Location 35.280374° -2.956708°
Runways 1
Magnetic Variation 0.454° W

METAR

GEML 151030Z 28015G27KT 250V320 9999 FEW015 18/13 Q1017

Decode

TAF

TAF GEML 150800Z 1509/1609 26015KT 9999 SCT030 TX19/1514Z TN13/1607Z TEMPO 1509/1516 27015G28KT TEMPO 1606/1609 4000 RA BKN014

Decode

Destination Runways

ID Width Length Bearing (true) Bearing (mag) Surface Threshold Offset Overrun Length
15 148 ft / 45 m 4,811 ft / 1,466 m 146.39° 146.84° Asphalt 755 ft / 230 m 0 ft / 0 m
33 148 ft / 45 m 4,811 ft / 1,466 m 326.40° 326.85° Asphalt 0 ft / 0 m 0 ft / 0 m

Popular Alternatives